Regional Weather Roundup
Issued by NWS

Home | Current Version | Previous Version | Graphics & Text | Print | Product List | Glossary On
Versions: 1 2 3 4 5 6 7 8 9 10 11 12 13 14 15 16 17 18 19 20 21 22 23 24 25 26 27 28 29 30 31 32 33 34 35 36 37 38 39 40 41 42 43 44 45 46 47 48 49 50
000
ASUS43 KLOT 301310
RWRIL

ILLINOIS REGIONAL WEATHER ROUNDUP
NATIONAL WEATHER SERVICE CHICAGO/ROMEOVILLE IL
800 AM CDT WED JUL 30 2014

NOTE: "FAIR" INDICATES FEW OR NO CLOUDS BELOW 12,000 FEET WITH NO
SIGNIFICANT WEATHER AND/OR OBSTRUCTIONS TO VISIBILITY.

* THESE STATIONS ARE NOT UNDER NWS QUALITY CONTROL. THEY ALSO MAY NOT
  REPORT WEATHER SUCH AS PRECIPITATION OR FOG.

ILZ001-002-007-009-015-016-024-301400-
NORTHWEST ILLINOIS

CITY           SKY/WX    TMP DP  RH WIND       PRES   REMARKS
MOLINE         SUNNY     64  59  83 CALM      30.07R
STERLING*      SUNNY     66  59  77 NW5       30.07R
SAVANNA*       SUNNY     65  60  84 NW3       30.07R
$$

ILZ003-004-008-010-011-017-018-301400-
NORTH CENTRAL ILLINOIS

CITY           SKY/WX    TMP DP  RH WIND       PRES   REMARKS
ROCKFORD       MOSUNNY   64  57  78 N5        30.07R
FREEPORT*      SUNNY     63  60  91 W5        30.08R
ROCHELLE*      SUNNY     64  57  80 NW8       30.06R
DE KALB*       SUNNY     62  57  84 NW7       30.06R
PERU*          SUNNY     64  59  83 NW6       30.07R
$$

ILZ005-006-012>014-019>023-301400-
NORTHEAST ILLINOIS

CITY           SKY/WX    TMP DP  RH WIND       PRES   REMARKS
CHICAGO-OHARE  MOSUNNY   65  54  67 NW7       30.03R
CHICAGO-MIDWAY MOSUNNY   68  57  68 W5        30.03R
AURORA         MOSUNNY   63  58  83 W7        30.05R
LANSING*       PTSUNNY   63  57  79 CALM      30.04R
JOLIET*        PTSUNNY   66  56  71 W3        30.06R
WAUKEGAN       PTSUNNY   62  57  83 NW6       30.03R
DUPAGE AIRPORT MOSUNNY   66  57  72 NW8       30.03S
KANKAKEE*      PTSUNNY   65  62  91 W3        30.05S
WHEELING       MOSUNNY   65  58  78 NW5       30.05R
MORRIS*          N/A     64  61  88 W3        30.05R
ROMEOVILLE*    PTSUNNY   65  58  79 W5        30.04S
NORTHERLY ISL    N/A     66  55  67 NW3         N/A
$$

LMZ740>746-301400-
SOUTHERN LAKE MICHIGAN

STATION/POSITION SKY/WX   TEMP    WIND        PRES    VSBY  WAVE
                          AIR SEA DIR/SP/G                  HT/PER
                          (F)     (DEG/KT/KT) (MB)    (MI)  (FT/S)
SOUTHERN BUOY              60 60  300/  6/  8 1016.5R         1
WAUKEGAN HARBOR            63     300/  6/ 10   N/A
HARRISON CRIB              64     280/  5/  6   N/A
BURNHAM HARBOR             67     260/  6/  6   N/A
CALUMET HARBOR             65     250/  2/  4 1015.7F
MICHIGAN CITY              65     270/ 10/ 11   N/A
MICHIGAN CITY 6N           65 68  300/  6/ 10   N/A           1/ 3
ST. JOSEPH                 65 67  300/ 10/ 12   N/A           1/ 3
$$

ILZ025>027-034>036-040-047-049-050-058-095>099-301400-
WEST-CENTRAL ILLINOIS

CITY           SKY/WX    TMP DP  RH WIND       PRES   REMARKS
QUINCY         SUNNY     66  60  81 CALM      30.10R
GALESBURG*     SUNNY     64  60  88 W3        30.08R
MACOMB*        SUNNY     63  61  93 W6        30.10R
JACKSONVILLE*  SUNNY     65  61  87 W3        30.10R
PITTSFIELD*    SUNNY     65  59  80 W3        30.11R
$$

ILZ028>032-037-038-041>044-048-051>054-059>061-301400-
CENTRAL ILLINOIS

CITY           SKY/WX    TMP DP  RH WIND       PRES   REMARKS
PONTIAC        SUNNY     64  61  88 CALM      30.05F
DECATUR        SUNNY     67  58  72 W7        30.09R
PEORIA         SUNNY     66  58  75 CALM      30.07R
LACON*         SUNNY     62  58  88 CALM      30.06R
LINCOLN*       SUNNY     67  59  73 CALM      30.06R
SPRINGFIELD    SUNNY     64  59  83 SW3       30.09R
TAYLORVILLE    SUNNY     61  57  88 CALM      30.09S
$$

ILZ033-039-045-046-055>057-062-063-301400-
EAST-CENTRAL ILLINOIS

CITY           SKY/WX    TMP DP  RH WIND       PRES   REMARKS
CHAMPAIGN      SUNNY     63  60  90 W6        30.07R
DANVILLE*      SUNNY     63  60  91 SW5       30.05R
RANTOUL*       SUNNY     64  60  84 W7        30.08R
MATTOON        SUNNY     65  57  75 VRB5      30.09R
PARIS*         SUNNY     64  60  86 W3        30.08S
$$

ILZ079-100>102-301400-
SOUTHWEST ILLINOIS

CITY           SKY/WX    TMP DP  RH WIND       PRES   REMARKS
ALTON          MOSUNNY   64  64 100 CALM      30.10R
BELLEVILLE     MOSUNNY   63  61  91 S1        30.10R
CAHOKIA*       PTSUNNY   66  60  81 CALM      30.10R
SPARTA*        PTSUNNY   64  59  82 SW3       30.11S
$$

ILZ064>066-069>071-074>076-080>082-084>086-088>090-092>094-301400-
SOUTH-CENTRAL ILLINOIS

CITY           SKY/WX    TMP DP  RH WIND       PRES   REMARKS
CARBONDALE     PTSUNNY   64  59  83 CALM      30.11R
CAIRO*         PTSUNNY   65  63  92 CALM      30.12R
EFFINGHAM*     SUNNY     64  56  75 W3        30.10R
MARION         MOSUNNY   70  59  68 SW5       30.12R
MT. VERNON     SUNNY     63  55  77 S3        30.12R
CENTRALIA*     SUNNY     87  61  41 CALM      30.10R HX  86
SALEM*         SUNNY    N/A N/A N/A CALM      30.10S
METROPOLIS*    PTSUNNY   62  59  90 CALM      30.11S
$$

ILZ067-068-072-073-078-083-087-091-301400-
SOUTHEAST ILLINOIS

CITY           SKY/WX    TMP DP  RH WIND       PRES   REMARKS
LAWRENCEVILLE  SUNNY     63  59  87 SW5       30.10R
FAIRFIELD*     SUNNY     63  61  94 CALM      30.10R
HARRISBURG*    MOSUNNY   61  61 100 CALM      30.12S
ROBINSON*      SUNNY     65  61  87 CALM      30.10R
$$

ABBREVIATIONS USED IN REMARKS
   TC - TEMPERATURE IN CELSIUS
  WCI - WIND CHILL INDEX
   HX - HEAT INDEX
  VSB - VISIBILITY
$$



USA.gov is the U.S. government's official web portal to all federal, state and local government web resources and services.